Dewpoint
59 59 59 59 59 59 60 60 60 60 61 61 59 57 57 59 59 58 59 60 60 61 62 61 59 59 59 59 59 56 45 12 13 13 14 17 35 54 54 56 58 58 53 28 18 19 15 18 20 24 16 16 19 21 21 21 27 27 20 16 16 19 13 15 11 15 14 10 12 21 19 20 20 24 24 24 22 24 23 22 23 17 13 13 13 14 16 19
59 59 59 59 59 60 60 60 60 60 61 60 60 61 59 59 58 58 60 59 61 60 62 60 60 58 57 57 59 51 26 9 10 11 13 30 51 53 57 57 56 56 49 24 18 16 14 14 21 17 15 18 20 20 21 22 22 20 18 19 15 14 15 16 10 13 8 9 13 22 21 20 19 22 22 19 22 24 24 23 22 20 15 14 15 16 17 16
58 59 58 58 59 59 59 60 60 60 60 60 60 60 60 59 59 60 60 60 61 61 60 59 59 58 58 58 58 51 30 7 8 9 11 47 56 56 56 57 56 54 36 22 26 17 15 17 24 15 16 15 17 19 17 16 20 21 19 13 14 15 12 14 11 10 14 12 16 19 21 19 21 20 25 22 20 22 21 21 20 20 17 13 15 16 15 14
59 59 58 58 58 58 59 59 60 60 60 60 60 61 59 59 59 58 60 59 60 61 60 60 58 58 58 56 59 34 12 4 4 8 7 48 55 55 55 55 54 49 36 31 27 26 23 21 21 18 22 16 21 19 17 17 15 15 19 15 15 15 7 10 11 11 11 19 17 19 22 22 23 24 22 22 20 20 21 24 22 21 18 13 14 15 16 14
59 59 58 58 59 58 59 59 59 60 59 59 60 60 60 60 59 61 61 60 59 60 60 59 58 58 58 55 53 27 24 5 3 3 6 51 53 54 54 51 53 39 35 31 17 16 18 19 22 25 20 19 24 21 17 19 15 18 13 12 14 15 4 13 13 13 13 15 20 20 19 19 24 25 24 20 18 17 20 22 25 25 20 13 14 15 15 14
58 58 58 58 58 58 59 59 59 59 60 61 59 61 60 60 61 59 60 59 60 58 59 57 57 58 58 53 32 31 23 8 14 13 48 49 53 53 54 48 44 30 19 17 17 17 13 16 18 22 21 20 18 16 17 21 20 11 11 11 14 11 7 10 16 16 17 18 19 20 21 23 22 24 24 20 19 21 27 27 28 27 20 15 15 16 15 15
58 57 57 57 56 58 58 58 59 59 59 59 61 59 59 59 59 58 58 59 59 58 57 58 57 58 58 50 31 17 11 12 13 17 43 49 52 49 47 44 46 30 19 17 16 15 18 16 19 23 22 20 17 18 20 18 19 15 7 14 10 14 10 13 14 14 15 17 17 20 25 21 22 22 23 22 22 25 28 25 25 26 26 19 17 16 16 15
57 57 56 56 56 58 58 58 59 59 59 60 59 59 58 59 59 58 57 58 59 58 58 58 58 57 56 32 22 20 14 13 12 19 40 46 32 27 43 24 28 26 22 18 17 16 18 16 15 23 20 21 20 20 24 14 17 17 13 16 11 15 15 16 16 13 14 16 17 19 19 18 21 19 23 22 23 24 17 20 24 27 20 17 16 17 17 16
57 57 57 55 57 58 58 58 58 58 59 59 59 59 57 58 58 58 58 57 59 59 58 57 58 56 50 30 21 11 10 12 13 18 25 22 22 19 18 15 19 22 23 22 22 17 16 17 19 17 14 21 24 24 22 13 12 19 16 16 14 14 14 13 15 14 15 16 17 17 16 18 20 20 18 18 20 20 15 16 18 19 16 15 16 17 17 16
58 56 56 57 57 58 58 58 58 58 59 58 58 58 57 57 57 57 57 57 58 60 58 57 58 52 33 26 25 8 9 15 18 20 20 22 21 17 16 17 17 18 20 19 24 22 17 14 15 19 21 21 25 21 21 20 9 22 19 17 13 15 13 12 14 15 14 16 16 15 15 17 21 15 12 19 20 16 15 14 14 16 16 15 16 18 18 17
57 56 57 57 57 58 58 58 58 58 58 58 57 58 58 57 56 56 57 58 58 59 58 58 55 43 24 21 17 11 13 16 26 17 21 23 19 18 17 18 16 16 19 20 20 24 20 17 19 22 27 19 23 23 23 22 20 19 19 19 17 19 11 13 14 14 14 14 16 14 14 17 19 15 13 15 19 15 16 13 13 14 16 15 15 15 17 17
57 56 57 57 57 58 58 58 58 57 57 59 58 59 57 57 55 54 56 57 57 57 57 57 49 22 21 16 14 14 18 17 24 19 22 21 20 20 21 21 16 17 21 22 23 21 23 20 23 25 17 25 21 25 23 30 22 21 20 14 15 19 12 11 14 14 14 12 17 17 14 15 16 14 16 18 14 14 15 13 12 13 14 14 14 14 16 16
57 57 57 57 57 58 57 57 57 59 59 59 59 58 58 58 57 55 56 56 56 57 57 55 41 35 29 20 17 16 19 18 20 19 21 22 22 20 17 16 17 21 22 23 25 26 30 29 23 22 29 24 23 18 24 26 24 24 21 17 17 19 17 13 15 13 12 12 16 16 10 12 14 15 16 19 12 12 13 14 13 12 12 13 13 13 14 15
57 56 57 57 58 58 58 58 58 58 58 59 58 58 57 57 56 56 57 57 58 56 57 53 33 33 23 14 14 16 18 23 17 17 18 23 16 15 18 19 19 19 20 24 26 31 29 27 25 28 32 26 21 28 19 21 24 15 19 21 13 9 16 15 16 16 14 15 16 20 9 8 9 12 14 16 12 13 15 15 14 12 12 12 13 13 13 13
56 56 57 58 57 58 57 57 58 57 57 57 58 57 57 55 56 56 57 57 57 56 56 55 29 27 19 15 15 16 44 19 15 16 18 21 20 12 15 18 18 21 21 22 22 24 25 27 26 25 22 26 25 21 18 18 18 19 14 14 19 11 18 17 23 18 11 14 17 19 11 10 10 11 15 16 12 13 15 15 14 13 12 12 11 11 11 12
56 56 57 57 57 56 56 57 57 57 57 57 57 56 56 56 55 55 56 53 53 55 46 42 33 21 17 13 11 30 15 14 14 17 18 22 21 21 21 17 18 19 18 18 21 21 24 24 21 21 22 20 19 15 17 18 16 18 11 7 7 11 14 12 18 20 21 16 20 18 12 10 9 12 15 16 12 11 14 15 15 14 13 11 11 11 11 12
56 57 57 57 57 56 56 56 56 57 56 57 56 56 56 56 54 56 55 51 42 41 30 26 27 34 20 19 15 12 13 15 16 18 19 24 23 22 19 18 19 19 20 19 17 19 19 18 23 19 23 18 21 18 8 16 10 11 14 8 11 6 10 10 17 20 21 19 16 19 15 12 11 12 14 16 12 11 12 13 14 14 13 12 12 10 10 10
56 56 57 57 57 57 57 57 56 56 56 56 56 55 52 56 51 45 43 43 39 37 36 36 33 20 15 14 8 11 16 16 17 17 19 22 27 27 25 24 24 20 18 13 11 15 19 15 22 16 20 20 21 16 13 4 11 3 5 5 12 12 10 9 9 16 18 21 17 17 14 14 13 14 14 16 13 12 12 12 13 13 13 12 11 10 9 9
56 56 57 57 56 56 56 56 56 56 56 55 55 57 56 51 41 33 33 33 22 20 22 24 21 16 14 14 14 15 17 18 18 22 22 23 25 28 28 24 22 18 19 12 14 18 21 17 20 17 13 14 14 17 14 13 11 6 5 7 11 6 9 12 15 20 20 17 18 15 15 14 13 12 13 13 16 13 13 13 13 12 13 12 11 10 9 10
55 55 56 56 57 56 56 56 56 56 55 48 40 38 37 35 30 23 31 30 22 23 24 25 23 23 20 15 15 16 18 18 19 21 23 23 25 21 20 24 27 23 22 18 20 19 23 13 8 9 18 17 15 18 17 12 12 14 13 10 10 10 11 13 17 20 22 16 13 13 14 13 13 12 12 12 14 15 14 13 13 13 13 13 12 11 12 10
54 55 55 55 56 56 56 56 57 56 53 43 37 29 20 22 20 14 19 21 25 30 26 25 23 19 16 14 15 18 13 13 20 19 23 26 26 19 17 20 23 19 19 23 16 20 20 8 9 16 15 17 15 17 17 16 17 14 13 11 11 14 11 12 14 18 22 16 15 16 14 13 12 11 10 13 15 14 14 14 14 13 13 13 14 14 13 12
55 54 55 55 55 56 56 56 56 54 50 43 39 31 33 26 29 25 20 9 22 28 27 25 25 17 16 16 16 17 14 12 15 17 23 24 22 13 20 20 19 14 21 23 20 17 15 7 9 16 19 19 18 19 15 15 16 14 11 12 10 14 15 15 17 18 17 16 13 13 11 11 11 11 12 12 13 14 15 15 14 14 14 14 14 15 15 14
54 54 54 54 55 56 56 56 54 50 40 38 35 36 36 40 42 40 26 22 20 24 24 23 20 19 16 19 20 19 17 15 12 16 23 25 22 20 21 19 20 19 20 20 14 12 9 8 13 19 18 15 16 18 18 18 18 14 13 9 9 15 8 12 17 17 14 13 12 13 13 12 13 13 12 13 14 15 16 16 16 17 15 15 15 15 16 15
54 53 54 54 55 56 56 55 51 41 39 37 38 36 40 42 40 38 23 17 16 22 25 24 21 20 18 18 21 20 18 19 20 19 25 26 23 22 21 22 18 18 16 19 18 15 13 12 20 20 20 17 16 14 13 11 9 13 13 12 11 10 9 10 11 13 16 18 19 15 12 12 12 9 8 11 13 12 14 14 15 15 18 18 18 16 17 15
53 53 53 55 55 56 55 49 39 37 37 31 38 41 42 43 43 35 25 20 22 21 27 28 23 21 17 23 26 23 21 23 23 23 24 25 25 23 21 22 15 14 15 22 18 17 9 12 20 16 16 16 14 15 12 10 7 13 14 12 12 10 9 9 11 11 10 15 10 11 9 10 8 9 9 9 10 10 12 14 14 16 15 16 14 15 16 17
53 52 53 54 54 55 54 33 32 40 31 29 33 43 44 42 41 39 22 15 5 21 23 15 22 15 20 20 23 23 18 18 22 23 33 24 31 23 22 18 17 11 16 18 14 15 13 19 19 15 13 13 13 12 12 9 8 6 13 15 12 10 12 12 11 11 9 6 7 11 5 8 10 8 8 10 9 8 10 12 11 12 13 15 15 15 15 15
53 52 52 55 53 51 26 26 29 31 24 25 44 44 44 45 41 31 13 12 2 15 15 23 18 17 25 25 21 17 7 11 19 24 24 28 24 29 18 19 20 21 22 20 13 9 19 17 15 13 12 11 7 6 8 11 9 12 12 13 13 12 11 11 11 9 11 16 14 13 8 5 7 8 8 8 8 9 10 12 12 11 11 12 13 14 15 15
53 52 53 54 53 47 24 31 33 28 21 34 42 43 43 44 43 34 18 -10 -12 21 19 20 18 23 25 27 21 18 12 19 17 19 27 29 28 25 21 19 19 18 20 11 3 17 16 16 15 13 11 8 9 10 10 12 10 16 14 15 14 14 13 13 11 11 12 7 9 7 9 6 6 9 9 9 7 7 9 11 13 13 12 11 13 14 14 15
54 53 51 54 54 50 41 36 32 33 38 41 40 41 41 37 32 19 5 -10 -7 20 23 19 26 21 24 25 17 22 23 21 16 20 25 24 23 20 17 20 21 21 20 14 9 14 16 14 15 14 12 12 10 8 13 10 9 15 17 19 17 16 15 13 12 11 9 5 6 7 7 2 7 8 7 9 6 8 12 14 16 16 15 14 15 15 14 15
54 52 53 51 44 40 41 36 37 41 41 41 43 40 35 29 22 18 -6 -14 16 4 21 21 17 19 22 20 19 19 16 17 24 24 21 18 16 24 24 25 20 18 15 20 19 17 16 27 22 12 11 12 11 17 14 14 17 19 16 11 14 11 13 11 8 4 4 -1 6 8 7 5 4 6 6 6 8 13 14 13 13 16 16 16 17 17 18 16
53 52 51 49 40 37 31 27 35 42 41 42 42 33 30 20 16 5 -12 7 14 16 21 18 16 24 19 15 16 18 18 20 20 21 14 22 14 23 21 15 24 16 19 19 13 16 16 19 20 22 25 16 15 15 18 17 18 12 10 9 11 9 7 7 7 6 -1 1 5 6 7 6 -0 6 7 12 15 14 13 13 12 14 15 17 18 18 19 18
53 52 49 43 43 38 25 27 37 43 41 40 32 27 19 4 4 -8 -10 20 7 12 11 14 20 21 21 19 12 13 14 18 21 21 15 18 16 13 14 9 12 1 10 11 9 11 8 16 19 16 26 14 12 8 12 15 16 13 11 11 5 6 5 -0 0 -0 -2 3 5 7 7 5 5 7 9 12 12 15 16 15 15 15 15 16 17 19 19 19
52 49 47 45 43 36 35 38 40 44 41 36 29 24 14 10 -12 7 4 10 -1 14 13 19 14 18 19 15 9 16 19 11 18 20 21 20 13 10 16 16 14 2 -0 9 8 5 10 15 17 16 16 21 10 8 8 8 10 11 10 6 5 -0 -5 -4 2 -3 -1 6 7 6 6 5 8 11 13 12 12 15 15 17 17 16 16 18 18 19 19 19
51 46 35 40 39 39 40 40 40 41 34 35 21 16 11 -11 -7 23 8 12 5 20 21 18 18 20 14 7 11 17 5 15 16 15 18 14 13 6 11 13 17 12 10 11 4 5 -0 5 6 15 12 14 11 10 8 7 10 10 9 7 7 3 -2 -2 -5 -1 4 7 7 6 2 6 3 15 13 13 14 15 16 17 17 17 18 18 18 18 18 18
51 43 39 36 33 34 40 38 39 40 34 28 19 17 -2 -0 2 0 4 10 9 17 17 23 14 8 8 15 15 17 9 8 16 13 14 7 5 6 6 7 11 15 14 4 7 4 3 5 3 16 15 13 11 15 12 10 9 13 9 13 7 5 10 3 1 -3 -3 3 4 0 7 8 13 14 14 15 15 13 15 13 17 17 17 18 16 17 17 17
45 39 36 32 34 30 37 39 36 35 28 24 17 2 -1 3 -11 6 6 16 17 8 8 11 13 7 9 11 10 13 17 10 13 10 10 12 10 9 10 9 12 15 8 2 8 2 7 1 16 15 12 12 13 17 12 11 3 9 8 3 8 13 10 2 5 1 1 -2 4 -3 7 10 12 14 16 13 12 13 14 15 17 17 17 16 16 17 16 17
37 35 22 29 27 32 37 36 38 32 24 18 16 -5 11 12 6 8 30 17 16 11 2 -0 8 5 5 4 7 9 10 9 10 7 4 12 5 12 15 15 16 17 13 8 5 6 1 5 10 11 11 15 16 17 15 15 13 11 4 8 12 13 12 7 0 -3 -9 -1 4 3 6 6 7 9 18 12 12 13 14 14 16 15 16 16 16 16 16 16
36 32 29 27 30 37 37 37 35 27 26 18 2 26 18 13 18 22 24 18 18 11 5 -0 0 9 6 6 6 7 10 5 14 10 6 10 5 15 17 15 20 17 17 16 7 7 13 5 12 13 13 13 14 15 12 12 16 10 11 13 7 1 2 8 -0 -2 -2 -1 2 4 1 2 4 12 12 10 11 12 13 14 15 15 15 16 16 15 15 16
31 31 25 25 34 37 37 34 31 28 19 6 3 6 22 16 24 23 24 24 21 11 7 7 -0 5 10 6 6 7 6 3 8 10 1 5 4 11 13 18 18 21 22 16 12 15 9 1 8 11 13 14 11 12 9 10 10 12 13 10 12 9 2 0 4 2 4 3 2 7 2 7 9 12 11 10 11 11 12 14 13 14 15 14 14 14 15 16
26 19 19 29 34 37 36 36 30 23 15 3 12 12 20 16 23 26 25 23 17 11 10 7 10 7 8 12 6 4 7 6 8 7 3 4 9 12 14 17 17 20 20 20 14 18 10 6 1 7 11 11 8 11 9 9 6 8 9 3 7 1 9 8 2 5 5 -4 -4 -3 4 4 11 14 12 11 11 12 12 13 13 14 14 14 14 15 15 16
29 24 24 32 35 35 33 27 21 15 11 16 20 15 23 20 24 24 25 25 23 22 16 8 11 7 7 4 4 8 6 12 11 7 9 9 9 4 17 19 21 16 20 15 13 13 6 9 5 9 7 9 8 12 11 10 12 12 13 11 13 5 2 1 6 -1 -2 1 2 -2 5 6 10 15 13 11 12 12 12 12 13 14 14 14 15 16 16 16
16 10 21 28 35 31 27 15 13 22 15 14 10 22 25 32 21 20 24 23 20 16 18 14 16 11 10 7 7 9 8 7 12 9 9 6 9 9 16 19 22 19 13 11 13 15 10 9 7 7 7 7 9 12 15 12 12 13 12 11 10 6 5 1 -0 5 -1 2 -4 -3 -2 7 15 14 13 11 11 11 12 14 13 14 14 14 15 16 16 16
17 9 22 32 34 27 19 8 22 17 13 19 22 23 23 24 17 20 22 21 19 18 18 17 17 14 14 10 12 12 10 5 12 9 10 11 10 14 21 23 20 18 14 13 13 12 24 4 2 6 8 8 11 11 12 12 11 10 9 10 9 5 10 11 6 2 2 -2 -1 -2 1 7 10 15 13 13 12 13 14 14 15 14 14 14 15 15 15 16
21 21 26 30 31 29 14 1 0 4 14 22 21 22 23 25 20 18 20 21 17 16 17 18 16 17 13 17 13 10 10 2 9 10 10 15 16 24 24 22 21 19 13 12 8 14 5 11 5 1 3 6 7 8 9 11 9 9 6 8 7 3 1 -0 -1 -4 2 4 7 3 5 5 10 15 13 11 13 13 14 14 14 14 14 14 15 15 15 16
22 23 25 27 28 22 11 18 7 6 9 16 15 14 15 19 21 20 20 19 20 16 15 14 17 17 17 18 17 20 19 5 5 8 9 12 14 17 16 15 15 21 24 26 26 23 5 9 4 0 -1 2 2 2 5 3 4 9 9 9 7 5 4 3 4 -2 1 4 5 -0 6 8 9 11 11 12 13 13 14 14 14 14 14 14 15 15 15 16
12 -1 18 19 21 22 23 23 22 17 12 11 6 9 16 13 18 20 21 22 21 21 19 18 21 19 18 16 14 15 15 17 8 6 8 7 8 17 21 19 19 23 26 24 25 13 5 9 8 8 8 7 9 9 12 16 9 6 7 7 6 5 1 1 1 1 5 4 5 6 7 8 8 10 11 12 13 13 13 14 14 14 14 14 15 15 15 17
17 6 10 8 17 17 16 20 20 15 7 14 -0 6 4 12 13 11 21 19 21 18 20 19 19 13 13 12 12 14 16 16 15 10 9 7 8 12 16 21 21 26 28 28 20 6 1 5 9 9 10 12 11 10 11 13 9 9 8 10 7 5 5 6 6 8 9 8 8 9 9 9 10 11 12 13 13 13 14 14 14 14 14 14 15 15 20 18
9 12 17 13 7 8 4 5 21 17 16 11 3 12 9 12 11 4 11 19 23 21 14 10 18 17 12 11 10 3 10 16 11 6 8 7 9 10 12 18 21 24 24 15 12 10 4 4 4 5 8 10 10 10 10 10 10 10 10 10 11 8 5 6 6 10 10 6 8 10 10 10 11 11 12 13 13 14 14 14 14 14 14 15 15 16 17 18
20 20 17 19 10 15 10 14 21 20 17 16 22 12 6 13 8 11 14 17 16 17 14 4 6 11 15 16 10 7 13 -1 2 3 9 8 7 6 7 9 22 23 16 12 12 1 8 6 2 4 8 11 12 13 13 12 12 11 10 11 12 10 8 9 10 11 10 9 10 10 10 10 11 12 13 14 15 15 14 14 14 14 14 16 16 17 17 18
17 14 12 18 19 17 18 17 17 15 13 18 6 6 9 13 9 14 14 13 3 9 19 7 6 13 18 18 13 6 10 7 4 4 6 9 7 8 5 11 13 20 14 12 8 11 8 6 12 5 3 9 10 10 9 11 10 8 9 10 10 10 11 11 9 10 10 10 11 11 10 11 12 14 14 15 14 14 14 13 14 14 15 16 16 17 18 18
26 21 22 12 7 10 17 16 16 15 11 12 5 7 13 14 11 13 11 13 8 7 16 10 13 20 19 18 17 14 14 12 9 10 12 12 10 15 8 8 18 14 14 10 7 8 6 6 -1 -0 4 9 9 8 8 9 9 8 8 9 10 10 7 8 7 11 8 9 10 7 8 11 14 15 15 14 14 13 13 14 15 15 16 16 16 18 18 18
26 27 25 18 6 21 16 11 9 6 2 12 8 10 13 11 15 13 9 16 21 20 20 17 19 16 15 17 16 18 18 18 19 19 19 17 19 20 18 15 17 16 12 8 6 6 3 1 4 -0 5 6 9 7 9 8 6 5 4 10 10 10 11 10 11 12 12 11 9 9 10 13 13 15 14 13 13 14 14 15 16 16 16 16 18 18 18 18